Regional Weather Roundup
Issued by NWS Kansas City/Pleasant Hill, MO

Home | Current Version | Previous Version | Graphics & Text | Print | Product List | Glossary Off
Versions: 1 2 3 4 5 6 7 8 9 10 11 12 13 14 15 16 17 18 19 20 21 22 23 24 25 26 27 28 29 30 31 32 33 34 35 36 37 38 39 40 41 42 43 44 45 46 47 48 49 50

000
ASUS43 KEAX 221904
RWREAX

WEATHER ROUNDUP FOR EASTERN KANSAS AND NORTHWEST MISSOURI
NATIONAL WEATHER SERVICE KANSAS CITY/PLEASANT HILL MO
200 PM CDT TUE JUL 22 2014

KSZ040-057-103>105-MOZ028-029-037-043-222000-
...KANSAS CITY METROPOLITAN AREA...

CITY           SKY/WX    TMP DP  RH WIND       PRES   REMARKS
K.C. INTL      PTSUNNY   91  78  65 SW10      30.02F HX 106
K.C. DOWNTOWN  MOSUNNY   96  73  47 SW12      29.99F HX 105
LEES SUMMIT    SUNNY     91  75  59 SW8       30.03F HX 101
OLATHE - IXD   MOSUNNY   95  74  50 S10       30.04F HX 105
OLATHE - OJC   MOSUNNY   92  76  59 S10       30.03F HX 104
LAWRENCE       MOSUNNY   97  70  41 W8        30.02F HX 103

$$

MOZ001>008-011>017-020>025-030>033-038>040-044>046-053-054-222000-
...NORTHERN AND CENTRAL MISSOURI...

CITY           SKY/WX    TMP DP  RH WIND       PRES   REMARKS
ST. JOSEPH     MOSUNNY   92  77  61 SW10      29.99F HX 105
MOSBY          CLEAR     91  73  55 S6        30.00F HX 100
WHITEMAN AFB   MOSUNNY   91  66  44 W8        30.04S HX  93
CLINTON        SUNNY     91  79  66 SW7       30.05S HX 107
SEDALIA        SUNNY     92  76  59 SW13      30.05F HX 104
WARSAW         NOT AVBL
MARSHALL       SUNNY     91  79  66 SW5       30.04F HAZE    HX 107
CHILLICOTHE      N/A     92  77  61 S9        30.00F HX 105
KIRKSVILLE     MOSUNNY   89  77  67 SW9G18    30.01F HX 101

$$

MOZ041-047>049-056>058-063>065-088>090-097-222000-
...EASTERN AND SOUTHERN MISSOURI...

CITY           SKY/WX    TMP DP  RH WIND       PRES   REMARKS
ST. LOUIS INTL CLOUDY    91  70  49 W10       30.05F HX  96
SPIRIT OF STL  PTSUNNY   89  71  55 W3        30.03F HX  95
COLUMBIA       PTSUNNY   91  76  61 SW7       30.04F HX 103
JEFFERSON CITY PTSUNNY   90  75  61 VRB5      30.03F HX 100
HANNIBAL       CLOUDY    82  72  69 SW13      29.99F
ROLLA          PTSUNNY   88  71  57 VRB3      30.08F HX  94
LEBANON        MOSUNNY   93  73  52 SW7       30.10F HX 102
OSAGE BEACH    SUNNY     91  73  55 W5        30.06F HX 100
SPRINGFIELD    MOSUNNY   90  74  59 VRB6      30.10F HX  99
BRANSON        MOSUNNY   93  64  38 S6        30.12F HX  95
NEVADA         SUNNY     91  77  62 W9        30.06F HX 105
JOPLIN         MOSUNNY   93  73  52 NW7       30.09F HX 102
WEST PLAINS    MOSUNNY   86  71  60 VRB6      30.12F HX  91
MALDEN         SUNNY     90  66  45 S5        30.09F HX  92

$$

IAZ060-094-KSZ022-034>040-054-083-096-NEZ052-066-093-222000-
...KANSAS...SOUTHEAST NEBRASKA AND IOWA...

CITY           SKY/WX    TMP DP  RH WIND       PRES   REMARKS
TOPEKA         PTSUNNY  100  70  37 VRB5      30.01F HX 107
MANHATTAN      PTSUNNY  100  68  35 SW9       30.01F HX 105
EMPORIA        SUNNY     96  72  45 CALM      30.05F HX 104
CHANUTE        SUNNY     94  74  52 VRB5      30.06F HX 104
WICHITA        MOSUNNY   95  74  50 S9        30.06F HX 105
OMAHA          MOSUNNY   90  68  48 N17       30.04R HX  94
LINCOLN        MOSUNNY   95  73  48 N17       30.05S HX 104
FALLS CITY     PTSUNNY   96  74  48 S9        29.99F HX 107
LAMONI         MOSUNNY   90  77  65 SW9       30.01R HX 103
DES MOINES     CLOUDY    89  78  70 W5        29.99R HX 103

$$




USA.gov is the U.S. government's official web portal to all federal, state and local government web resources and services.